Regional Weather Roundup
Issued by NWS

Home | Current Version | Previous Version | Text Only | Print | Product List | Glossary Off
Versions: 1 2 3 4 5 6 7 8 9 10 11 12 13 14 15 16 17 18 19 20 21 22 23 24 25 26 27 28 29 30 31 32 33 34 35 36 37 38 39 40 41 42 43 44 45 46 47 48 49 50

625
ASUS43 KDMX 141708
RWRIA

WEATHER ROUNDUP FOR IOWA
NATIONAL WEATHER SERVICE DES MOINES IA
1100 AM CST SUN FEB 14 2016

NOTE: "FAIR" INDICATES FEW OR NO CLOUDS BELOW 12,000 FEET WITH NO
SIGNIFICANT WEATHER AND/OR OBSTRUCTIONS TO VISIBILITY.

* - THESE STATIONS ARE NOT NWS STATIONS...THUS NOT UNDER NWS
QUALITY CONTROL.  THEY ALSO DO NOT REPORT WEATHER SUCH
AS PRECIPITATION OR FOG.

IAZ001>003-012>014-020>022-031>034-043>046-141800-
   NORTHWEST IOWA

CITY           SKY/WX    TMP DP  RH WIND       PRES   REMARKS
CARROLL *      CLOUDY    19  16  86 SE13      29.88F WCI   7
CHEROKEE *     CLOUDY    19  16  86 S13       29.87F WCI   7
DENISON *      CLOUDY    21  16  79 S10       29.85F WCI  10
LE MARS *      CLOUDY    21  18  86 S9        29.87F WCI  11
ORANGE CITY *  CLOUDY    19  18  93 CALM      29.84F
SHELDON *      CLOUDY    18  14  86 SE12      29.85S WCI   5
SIOUX CITY     CLOUDY    22  16  78 S8        29.87F WCI  12
SPENCER        CLOUDY    17  12  80 SE17      29.89S HAZE    WCI   1
STORM LAKE *   PTSUNNY   18  18 100 SE13      29.86F WCI   4
$$

IAZ055>058-069>071-079>083-090>094-141800-
   SOUTHWEST IOWA

CITY           SKY/WX    TMP DP  RH WIND       PRES   REMARKS
ATLANTIC *     CLOUDY    23  14  68 S8        29.88F WCI  14
AUDUBON *      CLOUDY    21  16  79 S9        29.87F WCI  11
CLARINDA *     CLOUDY    32  14  47 S15       29.90F WCI  22
COUNCIL BLFS * CLOUDY    27  16  63 SW12      29.85F WCI  16
CRESTON *      CLOUDY    23  16  74 S10       29.90F WCI  12
HARLAN  *      CLOUDY    23  16  74 S9        29.90F WCI  13
LAMONI         CLOUDY    24  17  74 S9        29.90F WCI  14
RED OAK *      CLOUDY    30  12  47 S14       29.88F WCI  20
SHENANDOAH *   CLOUDY    32  14  47 SW14      29.89F WCI  22
$$

IAZ047>049-059>061-072>074-084-141800-
   CENTRAL IOWA

CITY           SKY/WX    TMP DP  RH WIND       PRES   REMARKS
AMES           CLOUDY    19  14  81 SE17      29.95F WCI   4
ANKENY *       LGT SNOW  19  16  86 SE13G18   29.96F WCI   7
BOONE *        LGT SNOW  18  16  93 SE20G25   29.91F WCI   1
CHARITON *     CLOUDY    21  16  79 SE10G18   29.95F WCI  10
DES MOINES     FLURRIES  21  15  78 SE14      29.95F WCI   8
GRINNELL*      LGT SNOW  19  16  86 SE15G22   29.99F WCI   5
KNOXVILLE *    MOSUNNY   21  16  79 SE15      29.96S HAZE    WCI   8
MARSHALLTOWN   CLOUDY    18  13  80 SE22      29.98F HAZE    WCI   1
NEWTON *       LGT SNOW  18  16  93 SE17G24   29.97F WCI   2
PELLA *        LGT SNOW  21  16  79 SE13      29.99F WCI   9
$$

IAZ004>006-015-016-023>025-035-036-141800-
   NORTH CENTRAL IOWA

CITY           SKY/WX    TMP DP  RH WIND       PRES   REMARKS
ALGONA *       CLOUDY    18  14  86 SE22      29.91F FOG     WCI   0
CLARION *      CLOUDY    16  12  86 SE23      29.93F FOG     WCI  -2
ESTHERVILLE    CLOUDY    15  13  91 SE16      29.90F FOG     WCI  -1
FORT DODGE *   CLOUDY    19  12  73 SE9G17    29.93F WCI   9
MASON CITY     LGT SNOW  16  13  88 SE21      29.97F VSB 1   WCI  -1
FOREST CITY *  LGT SNOW  18  14  86 SE17G25   29.95F WCI   2
WEBSTER CITY * CLOUDY    18  14  86 SE22G28   29.91F FOG     WCI   0
IOWA FALLS *   LGT SNOW  19  14  79 SE16G23   29.97F WCI   5
$$

IAZ007>011-017>019-026>030-037>042-050>054-066-141800-
   NORTHEAST IOWA

CITY           SKY/WX    TMP DP  RH WIND       PRES   REMARKS
CEDAR RAPIDS   HVY SNOW  17  14  88 SE15G25   30.05F VSB 1/4 WCI   2
CHARLES CITY * CLOUDY    16  14  93 SE22      30.00F FOG     WCI  -2
CLINTON *      LGT SNOW  19  14  81 SE20      30.14F WCI   3
DECORAH *      LGT SNOW  14  10  85 SE15G21   30.04F VSB 3/4 WCI  -1
DUBUQUE        SNOW      14  10  84 SE18      30.10F VSB 1/4 WCI  -3
MONTICELLO *   LGT SNOW  16  12  86 SE16G23   30.10S VSB 3/4 WCI   0
OELWEIN *      FOG       16  14  93 SE24      30.04F VSB 3/4 WCI  -3
WATERLOO       SNOW      17  13  84 SE13      30.03F VSB 1/2 WCI   4
$$

IAZ064-065-067-068-078-141800-
   EAST CENTRAL IOWA

CITY           SKY/WX    TMP DP  RH WIND       PRES   REMARKS
DAVENPORT      LGT SNOW  17  12  80 SE18      30.12F WCI   1
IOWA CITY      SNOW      17  14  88 SE17G23   30.09F VSB 1/4 WCI   1
MT. PLEASANT * LGT SNOW  21  16  79 SE15      30.07F WCI   8
MUSCATINE *    LGT SNOW  18  14  86 SE17      30.11F VSB 1   WCI   2
QUAD CITIES    LGT SNOW  18  12  77 SE15      30.13S WCI   4
$$

IAZ062-063-075>077-085>089-095>099-141800-
   SOUTHEAST IOWA

CITY           SKY/WX    TMP DP  RH WIND       PRES   REMARKS
BURLINGTON     CLOUDY    18  14  84 SE14      30.07F WCI   4
FAIRFIELD *    LGT SNOW  19  14  79 SE15      30.03F VSB 3/4 WCI   5
FORT MADISON * CLOUDY    18  16  93 SE15G21   30.07S WCI   3
KEOKUK *       CLOUDY    21  16  79 SE14      30.06S WCI   8
OSKALOOSA *    LGT SNOW  19  16  86 SE16      30.01F WCI   5
CENTERVILLE *  FLURRIES  19  18  93 SE12      29.98F WCI   7
OTTUMWA        LGT SNOW  20  17  88 SE13      30.01F VSB 3/4 WCI   7
WASHINGTON *   LGT SNOW  18  14  86 SE18      30.07F VSB 3/4 WCI   2
$$

ABBREVIATIONS USED IN REMARKS
   TC - TEMPERATURES IN CELSIUS
  WCI - WIND CHILL INDEX
   HX - HEAT INDEX
  VSB - VISIBILITY
$$





USA.gov is the U.S. government's official web portal to all federal, state and local government web resources and services.